Погода в Шаморге

Россия / Рязанская область     54°02′32″N   42°01′52″E
темп.,
°C
ветер,
м/с
пор.,
м/с
влажн.,
%
обл.,
%
осадки,
мм/ч
давл.,
гПа
погр.,
м
19 мая, ср
ср1900:00+21вюв6184597 0.0 1008556
03:00+17вюв411574 0.0 1007245
06:00+16юв412695 0.0 1008354
09:00+21ю47638 0.0 1009863
12:00+24ююв695619 0.0 10091526
15:00+25ююв59510 0.0 10091928
18:00+23ююв38620 0.0 1008767
21:00+18всв2277100 0.0 100724
20 мая, чт
чт2000:00+16ю81689100 2.7 1009694
03:00+13ююв41193100 3.8 1009566
06:00+13ююв379595 0.0 1009524
09:00+15ююв3580100 0.0 1009567
12:00+19ююв5759100 0.1 10081604
15:00+19ю5761100 0.4 10071484
18:00+17ю59795 0.9 1007813
21:00+13ю410930 1.0 1008298
21 мая, пт
пт2100:00+12ююз4109698 0.0 1008376
03:00+11ююз499796 0.0 1009403
06:00+12ююз4895100 0.2 1010528
09:00+13юз599186 0.4 1012707
12:00+15зюз587399 0.3 10131221
15:00+16зюз4672100 0.3 10151183
18:00+15зюз368098 0.1 1016445
21:00+13зсз128396 0.1 101828
22 мая, сб
сб2200:00+11зсз1187100 0.0 101813
03:00+12ююв1285100 0.0 101936
06:00+13ссв1183100 0.0 101964
09:00+12юв2392100 1.1 1020209
12:00+13в2391100 2.6 1021327
15:00+14в358990 3.6 1020456
18:00+15всв3482100 0.0 1019476
21:00+12всв3797100 0.0 1019168
23 мая, вс
вс2300:00+11св3898100 0.0 1019199
03:00+11всв41296100 0.0 1017264
06:00+13всв31092100 0.0 1016364
09:00+17в2383100 0.3 1014409
12:00+22вюв4764100 0.0 1013615
15:00+26юв4856100 0.0 10101042
18:00+24юв5116984 0.0 1008617
21:00+19вюв3589100 0.0 100788